Location: Westerlo
(51.0830°N, 4.9170°E)
Time: 19:47:01
(UTC+01:00)

ISS - Visible Passes

Search period start: 18 February 2019 00:00
Search period end: 28 February 2019 00:00
Orbit: 403 x 411 km, 51.6° (Epoch: 19 February)

Date Brightness Start Highest point End Pass type
(mag) Time Alt. Az. Time Alt. Az. Time Alt. Az.
23 Feb -0.6 06:35:11 10° SSE 06:35:58 11° SE 06:36:43 10° ESE visible
25 Feb -1.4 06:26:36 10° SSW 06:29:05 20° SE 06:31:34 10° E visible
26 Feb -1.0 05:36:08 10° SSE 05:37:46 13° SE 05:39:23 10° ESE visible
27 Feb -2.5 06:19:14 10° SW 06:22:16 35° SSE 06:25:18 10° E visible
